This is the latest recevied weather packets stored in our database for station/object KE8AFF-13. If no packets are shown the sender has not sent any weather packets the latest 10 day(s).
| Time | Temp. | Humidity | Pressure | Rain* | Wind** | Luminosity | Snow |
|---|---|---|---|---|---|---|---|
| 1787791877 | 22.22° C | 83% | 1012.7 hPa | 0 mm | - | 0 W/m² | - |
| 1787791571 | 22.22° C | 83% | 1012.3 hPa | 0 mm | - | 0 W/m² | - |
| 1787791267 | 22.22° C | 84% | 1012.4 hPa | 0 mm | - | 0 W/m² | - |
| 1787790962 | 22.78° C | 84% | 1012.1 hPa | 0 mm | - | 0 W/m² | - |
| 1787790658 | 22.78° C | 83% | 1012.3 hPa | 0 mm | - | 0 W/m² | - |
| 1787790353 | 22.78° C | 83% | 1012.5 hPa | 0 mm | - | 0 W/m² | - |
| 1787790048 | 22.78° C | 83% | 1012.5 hPa | 0 mm | - | 0 W/m² | - |
| 1787789744 | 22.78° C | 82% | 1012.6 hPa | 0 mm | - | 0 W/m² | - |
| 1787789438 | 22.78° C | 81% | 1012.7 hPa | 0 mm | - | 0 W/m² | - |
| 1787789138 | 22.78° C | 81% | 1013 hPa | 0 mm | - | 2 W/m² | - |
| 1787788837 | 22.78° C | 80% | 1012.9 hPa | 0 mm | - | 2 W/m² | - |
| 1787788536 | 22.78° C | 80% | 1012.8 hPa | 0 mm | - | 5 W/m² | - |
| 1787788230 | 22.78° C | 79% | 1012.8 hPa | 0 mm | - | 6 W/m² | - |
| 1787787920 | 23.33° C | 78% | 1012.8 hPa | 0 mm | - | 3 W/m² | - |
| 1787787615 | 23.33° C | 78% | 1012.8 hPa | 0 mm | - | 4 W/m² | - |
| 1787787309 | 23.33° C | 77% | 1013 hPa | 0 mm | - | 10 W/m² | - |
| 1787787008 | 23.89° C | 76% | 1013 hPa | 0 mm | - | 12 W/m² | - |
| 1787786703 | 23.89° C | 75% | 1013.1 hPa | 0 mm | - | 13 W/m² | - |
| 1787786403 | 24.44° C | 72% | 1012.9 hPa | 0 mm | - | 8 W/m² | - |
| 1787786099 | 25° C | 69% | 1012.7 hPa | 0 mm | - | 35 W/m² | - |
| 1787785794 | 25° C | 69% | 1012.6 hPa | 0 mm | - | 35 W/m² | - |
| 1787785490 | 25° C | 69% | 1012.6 hPa | 0 mm | - | 44 W/m² | - |
| 1787785188 | 25° C | 69% | 1012.6 hPa | 0 mm | - | 63 W/m² | - |
| 1787784884 | 25° C | 69% | 1012.6 hPa | 0 mm | - | 63 W/m² | - |
| 1787784583 | 25.56° C | 66% | 1012.8 hPa | 0 mm | - | 94 W/m² | - |
* Rain latest hour (hover to see other rain measurements)
** Current wind speed in m/s (hover to see current wind gust speed)